ROMMA est une association bénévole à but non lucratif. Votre soutien est indispensable : ADHERER à ROMMA ou FAIRE un DON

Le Versoud - (38, Isère)

Vallée du Grésivaudan (220 m)   Longitude: 05° 51' 44" E   Latitude: 45° 13' 06" N Station partenaire n°6
 

Détail journalier du     <<     >>

Température Humidité Pression Vent Dir Rafale Dir. rafale Ensol.
Heure (°C) (%) (hPa) (km/h) (km/h) (min)
01:00 18.479101400---0
02:00 17.781101400---0
03:00 17.083101400---0
04:00 16.882101300---0
05:00 16.185101300---0
06:00 15.586101300---0
07:00 15.686101400---0
08:00 17.779101400---25
09:00 19.172101400---20
10:00 19.972101400---0
11:00 21.164101300---0
12:00 22.458101302NNO0
13:00 22.661101308N0
14:00 23.357101308NE0
15:00 23.755101303NE0
16:00 24.7531013011ESE0
17:00 25.1511012010SSE0
18:00 25.951101303NO5
19:00 25.552101303ONO15
20:00 24.860101300---0
21:00 23.465101300---10
22:00 21.864101400---0
23:00 20.172101408NO0
minuit 18.781101400---0

Graphique du 11-07-2019

 

Serveur OMMA